This is the latest recevied weather packets stored in our database for station/object KD9JJA. If no packets are shown the sender has not sent any weather packets the latest 10 day(s).
| Time | Temp. | Humidity | Pressure | Rain* | Wind** | Luminosity | Snow |
|---|---|---|---|---|---|---|---|
| 1777833830 | 16.11° C | 49% | 1017.5 hPa | 0 mm | - | 192 W/m² | - |
| 1777833526 | 16.11° C | 49% | 1017.1 hPa | 0 mm | - | 129 W/m² | - |
| 1777833223 | 15.56° C | 49% | 1017.8 hPa | 0 mm | - | 125 W/m² | - |
| 1777832921 | 16.11° C | 47% | 1018.1 hPa | 0 mm | - | 351 W/m² | - |
| 1777832619 | 16.11° C | 52% | 1017.9 hPa | 0 mm | - | 170 W/m² | - |
| 1777832316 | 15.56° C | 48% | 1018.1 hPa | 0 mm | - | 252 W/m² | - |
| 1777832013 | 15.56° C | 53% | 1018.1 hPa | 0 mm | - | 167 W/m² | - |
| 1777831710 | 16.11° C | 53% | 1018.2 hPa | 0 mm | - | 352 W/m² | - |
| 1777831408 | 15.56° C | 53% | 1018.6 hPa | 0 mm | - | 617 W/m² | - |
| 1777831104 | 15.56° C | 49% | 1018.6 hPa | 0 mm | - | 138 W/m² | - |
| 1777830802 | 16.11° C | 48% | 1018.8 hPa | 0 mm | - | 654 W/m² | - |
| 1777830497 | 15.56° C | 52% | 1018.7 hPa | 0 mm | - | 117 W/m² | - |
| 1777830196 | 15.56° C | 55% | 1019 hPa | 0 mm | - | 376 W/m² | - |
| 1777829892 | 15.56° C | 48% | 1018.9 hPa | 0 mm | - | 122 W/m² | - |
| 1777829588 | 15.56° C | 54% | 1019.3 hPa | 0 mm | - | 110 W/m² | - |
| 1777829284 | 15° C | 49% | 1019.2 hPa | 0 mm | - | 115 W/m² | - |
| 1777828982 | 15° C | 54% | 1019.2 hPa | 0 mm | - | 159 W/m² | - |
| 1777828678 | 15° C | 53% | 1019.2 hPa | 0 mm | - | 92 W/m² | - |
| 1777828375 | 15° C | 56% | 1019.3 hPa | 0 mm | - | 77 W/m² | - |
| 1777828073 | 15° C | 53% | 1019.1 hPa | 0 mm | - | 87 W/m² | - |
| 1777827769 | 15.56° C | 50% | 1019.2 hPa | 0 mm | - | 94 W/m² | - |
| 1777827466 | 15.56° C | 47% | 1019.4 hPa | 0 mm | - | 129 W/m² | - |
| 1777827164 | 15.56° C | 47% | 1019.5 hPa | 0 mm | - | 91 W/m² | - |
| 1777826859 | 15° C | 47% | 1019.6 hPa | 0 mm | - | 107 W/m² | - |
| 1777826557 | 15° C | 49% | 1019.8 hPa | 0 mm | - | 150 W/m² | - |
* Rain latest hour (hover to see other rain measurements)
** Current wind speed in m/s (hover to see current wind gust speed)